World > North America > United States > Texas

May, Texas Regional Weather

Lat: 31.98N, Lon: 98.92W
Wx Zone: TXZ140Web Search
May Weather Warning NWS WEATHER ALERT FOR THE MAY, TX AREA - Issued: 508 AM CDT Sun Apr 11 2021 May Weather Warning  

If you are on your PC, you can easily pass this page to your phone by scanning the QR Code near the bottom with your camera.

Feedback


°F Click to change May hourly weather to Imperial units.Click to change May hourly weather to Metric units. °C
May Weather Map
UTC Time: 4/11/2021, 15:15
Your Time:

May, TX Regional Weather

Expires:202104111600;;389091
ASUS44 KFWD 111510
RWRTX 
NORTH TEXAS HOURLY WEATHER ROUNDUP
NATIONAL WEATHER SERVICE FORT WORTH TX
1000 AM CDT SUN APR 11 2021

NOTE: "FAIR" INDICATES FEW OR NO CLOUDS BELOW 12,000 FEET WITH NO
SIGNIFICANT WEATHER AND/OR OBSTRUCTIONS TO VISIBILITY.


TXZ083>090-098>101-113>116-127>130-139>142-154-155-111600-
WESTERN NORTH TEXAS
  
CITY           SKY/WX    TMP DP  RH WIND       PRES   REMARKS
WICHITA FALLS  FAIR      64  37  36 SW15      29.75F                  
WF-KICKAPOO    FAIR      63  37  38 S9G17     29.77F                  
VERNON         FAIR      62  36  38 S12       29.74F                  
ABILENE        FAIR      68  31  25 S17G33    29.74S                  
ABILENE-DYESS  FAIR      67  28  23 S20G29    29.74S                  
BRECKENRIDGE   FAIR      70  36  28 S17G25    29.76S                  
CISCO          FAIR      64  34  32 S18       29.75S                  
EASTLAND       FAIR      66  33  29 S15G21    29.77F                  
RANGER         FAIR      65  36  33 S12G20    29.78F                  
MINERAL WELLS  FAIR      61  40  45 S7        29.77S                  
STEPHENVILLE   FAIR      66  37  35 S8        29.81F                  
COMANCHE       FAIR      68  41  37 SE8       29.79S                  
BROWNWOOD      FAIR      66  34  30 S12       29.79R                  
COLEMAN        FAIR      65  34  31 S10       29.79R                  
BRADY          FAIR      66  30  26 S12       29.79R                  
$$


SKY/WX - Weather  TMP - Temperature  DP - Dew Point  RH - Relative Humidity
WIND - Wind Direction/Speed PRES - Barometric Pressure VSB - Visibility
WCI - Wind Chill Index E13G22 Wind - East Wind 13 mph/Gusts of 22 mph